Tracking 35331 objects as of 14-Sep-2026
HD Live streaming from Space Station
objects crossing your sky now

STARLINK-3883

Track STARLINK-3883 now!
10-day predictions
STARLINK-3883 is classified as:


NORAD ID: 52493
Int'l Code: 2022-049AU
Launch date: May 6, 2022
Source: United States (US)
Launch site: AIR FORCE EASTERN TEST RANGE (AFETR)
Your satellite tracking list
Your tracking list is empty




NASA's NSSDC Master Catalog

Two Line Element Set (TLE):
1 52493U 22049AU  26256.33950753  .00000515  00000-0  25681-4 0  9993
2 52493  53.1603 277.5105 0001417 100.3731 259.7432 15.35406445240845
Source of the keplerian elements: AFSPC